Regional Weather Roundup
Issued by NWS

Home | Current Version | Previous Version | Graphics & Text | Print | Product List | Glossary On
Versions: 1 2 3 4 5 6 7 8 9 10 11 12 13 14 15 16 17 18 19 20 21 22 23 24 25 26 27 28 29 30 31 32 33 34 35 36 37 38 39 40 41 42 43 44 45 46 47 48 49 50
000
ASUS45 KTFX 010604
RWRMT
MONTANA HOURLY WEATHER ROUNDUP
NATIONAL WEATHER SERVICE GREAT FALLS MT
1104 PM MST SAT JAN 31 2015

NOTE: "FAIR" INDICATES FEW OR NO CLOUDS BELOW 12000 FEET WITH NO
SIGNIFICANT WEATHER AND/OR OBSTRUCTIONS TO VISIBILITY.

* THESE STATIONS ARE NOT UNDER NWS QUALITY CONTROL. THEY DO NOT
   REPORT WEATHER SUCH AS PRECIPITATION OR FOG.

MTZ001>007-043-010700-
WEST OF THE DIVIDE
CITY           SKY/WX    TMP DP  RH WIND       PRES   REMARKS
KALISPELL      CLOUDY    27  16  63 N9        30.25R WCI  18
MISSOULA       CLOUDY    32  25  75 N7        30.23R WCI  25
BUTTE          PTCLDY    19  12  74 CALM      30.15R
MULLAN PASS    CLOUDY    21  18  88 CALM      30.12S
* ANACONDA     PTCLDY    19  12  74 N/A        N/A
* ESSEX        N/A       16   7  67 SE6G14     N/A   WCI   7
* LINCOLN      N/A       11   3  70 NE3G8      N/A
* LOOKOUT PASS N/A       24  24 100 NW2        N/A
* POLSON       N/A       25  24  96 N/A        N/A
* RONAN APT    MOCLDY    28  28 100 N/A        N/A
* SEELEY LAKE  N/A       21  12  68 W2         N/A
* THOMP F APT  PTCLDY    13   9  84 NE2        N/A
$$

MTZ008-052>055-010700-
SOUTHWEST MONTANA
CITY           SKY/WX    TMP DP  RH WIND       PRES   REMARKS
BOZEMAN        CLOUDY    19  10  68 W8        30.23R WCI   9
DILLON         PTCLDY    14   9  80 E8        30.15R WCI   3
* W YELLOWSTON PTCLDY    10   7  88 N/A        N/A
* THREE FORKS  PTCLDY    18  16  92 N/A        N/A
* BOULDER HILL N/A       10   6  84 N3         N/A
* MONIDA PASS  N/A       15   6  67 N/A        N/A
* RAYNOLDS PAS N/A       16  14  92 N3         N/A
* WHITEHALL    N/A       19  10  68 E3G10      N/A
* WISE RIVER   N/A       20  11  68 SE6        N/A   WCI  12
$$

MTZ009>010-012-014-046-048-049-054-010700-
EAST SLOPES AND CENTRAL MONTANA
CITY           SKY/WX    TMP DP  RH WIND       PRES   REMARKS
CUT BANK       MOCLDY     0  -2  91 CALM      30.31S
GREAT FALLS    PTCLDY     5   3  91 CALM      30.34R
HELENA         CLOUDY    18   9  68 N7        30.29R WCI   9
MALMSTROM AFB  PTCLDY     0  -2  91 S5        30.37R WCI -11
* DEARBORN     N/A       11   7  84 VRB7       N/A
* EAST GLACIER N/A        1  -2  87 NE1        N/A
* MONARCH      N/A        4  -1  79 NW4        N/A
* PENDROY      N/A      N/A N/A N/A W6         N/A
* ROGERS PASS  N/A        6   2  83 N/A        N/A
* SWEET GRASS  N/A        0  -3  87 N/A        N/A
$$

MTZ011-013-016-021-035-040-045-047-050-051-010700-
NORTH CENTRAL MONTANA
CITY           SKY/WX    TMP DP  RH WIND       PRES   REMARKS
HAVRE          CLOUDY     7   1  76 CALM      30.44R
LEWISTOWN      LGT SNOW   5   1  83 W6        30.29R WCI  -6
* N BAR RANCH  HAZE       9   1  70 N7        30.26R VSB 3    WCI  -2
* CHESTER      N/A        1  -4  79 N/A        N/A
* DENTON       N/A        6   3  87 N4         N/A
* GEYSER       N/A        5   2  87 W11G16     N/A   WCI -10
* JUDITH GAP   N/A        6   4  91 N17        N/A   WCI -13
* LOMA         N/A        2  -1  87 W6         N/A   WCI  -9
$$

MTZ017>020-022>027-061-062-010700-
NORTHEAST MONTANA
CITY           SKY/WX    TMP DP  RH WIND       PRES   REMARKS
GLASGOW        LGT SNOW   3  -2  79 N5        30.46R WCI  -7
GLENDIVE       CLOUDY     1  -2  87 NE10      30.39R WCI -15
JORDAN         MOCLDY     5   0  80 NE6       30.40R WCI  -6
SIDNEY         CLOUDY     0  -6  75 N7        30.48R VSB 3    WCI -13
WOLF POINT     CLOUDY     3  -6  66 E7        30.50R WCI  -9
* BEAVER HILL  N/A       -1  -5  83 N8         N/A   WCI -15
* CIRCLE       N/A        3   0  87 N10        N/A   WCI -12
* LINDSAY DVD  N/A        0  -4  83 N4         N/A
* NAVAJO       N/A       -4  -8  83 NE6        N/A   WCI -17
* SACO         N/A        3  -2  79 N6         N/A   WCI  -8
$$

MTZ028>042-056>058-010700-
SOUTHCENTRAL AND SOUTHEAST MONTANA
CITY           SKY/WX    TMP DP  RH WIND       PRES   REMARKS
BAKER          CLOUDY     1  -2  87 NE7       30.31R WCI -12
BILLINGS       LGT SNOW  12   9  88 NE7       30.30R VSB 2    WCI   1
LIVINGSTON     LGT SNOW  18  10  71 W7        30.20R WCI   9
MILES CITY     LGT SNOW   5   1  83 N10       30.36R VSB 1 3/4 WCI -10
* LAUREL APT   MOCLDY    14   5  67 N5         N/A   WCI   6
* ROUNDUP APT  CLOUDY    10   1  67 NE7        N/A   WCI  -1
* ALZADA       N/A        9   6  87 N8         N/A   WCI  -3
* HYSHAM       N/A        7   4  87 NE4        N/A
* LAME DEER    N/A        4   0  83 NW7        N/A   WCI  -8
* REED POINT   N/A       16  11  81 E7         N/A   WCI   6
* ROSCOE HILL  N/A       11   8  88 NW4        N/A
$$

REGIONAL REPORTS...DAKOTAS
CITY           SKY/WX    TMP DP  RH WIND       PRES   REMARKS
WILLISTON      CLOUDY    -2 -11  65 NE9       30.48R WCI -18
DICKINSON      LGT SNOW  -2  -8  75 NE15      30.33R VSB 3    WCI -22
CROSBY         CLEAR     -4 -13  65 E3        30.51R
WATFORD CITY   CLEAR     -2  -9  72 NE8       30.43R WCI -17
BISMARCK       LGT SNOW  -2  -9  72 N15       30.43S VSB 2    WCI -22
GRAND FORKS    PTCLDY    -8 -17  64 N14       30.55R WCI -29
FARGO          CLOUDY     0  -9  65 N18       30.44R WCI -21
BUFFALO SD     PTCLDY     5   0  80 NE16      30.17R WCI -14
RAPID CITY     LGT SNOW  10   9  96 N14       30.17R WCI  -6
$$

REGIONAL REPORTS...WYOMING/IDAHO/WASHINGTON
CITY           SKY/WX    TMP DP  RH WIND       PRES   REMARKS
GILLETTE       FOG       16  12  84 N22       30.13R WCI  -2
SHERIDAN       CLOUDY    16   9  74 NW20      30.23R WCI  -1
CODY           CLOUDY    16  14  92 N12       30.14S WCI   3
YELLOWSTONE LA PTCLDY     7   3  83 CALM      30.09R
SALMON         CLOUDY    21  18  88 CALM      30.23S
MULLAN PASS    CLOUDY    21  18  88 CALM      30.12S
SAND POINT     FOG       32  32 100 CALM      30.30R
SPOKANE        CLOUDY    30  28  92 N3        30.28S
$$

REGIONAL REPORTS...ALBERTA
CITY           SKY/WX    TMP DP  RH WIND       PRES   REMARKS
EDMONTON       PTCLDY    -2  -8  75 S8        30.35F WCI -17

$$



USA.gov is the U.S. government's official web portal to all federal, state and local government web resources and services.